Temperature
16 16 15 15 15 16 16 16 16 16 16 16 15 15 15 15 15 15 15 15 15 15 15 15 15 15 15 15 15 15 15 15 15 15 14 15 15 14 14 14 14 14 14
17 16 15 15 15 16 16 16 16 16 16 16 15 15 15 15 15 15 15 15 15 15 15 15 15 15 15 15 15 14 14 14 15 14 14 14 14 14 14 14 14 14 14
16 16 15 15 15 15 16 16 16 15 16 15 15 15 15 15 15 15 15 15 15 15 15 15 15 15 15 15 15 14 14 14 14 14 14 14 14 14 14 14 14 14 14
16 16 15 15 15 15 15 15 15 15 15 15 15 15 15 15 15 15 15 15 15 15 15 15 15 15 15 15 14 14 14 14 14 14 14 14 14 14 14 14 14 14 14
16 15 15 15 15 15 15 15 15 15 15 15 15 15 15 15 15 14 14 14 14 15 14 14 14 14 14 14 14 14 14 14 14 14 14 14 14 14 14 14 14 14 14
15 15 15 15 15 15 15 15 15 15 15 15 15 15 15 15 14 14 14 14 14 14 14 14 14 14 14 14 14 14 14 14 14 14 13 14 13 13 14 14 14 14 13
15 15 15 15 15 15 15 15 15 15 15 15 15 15 14 14 14 14 14 14 14 14 14 14 14 14 14 14 14 14 13 13 13 13 13 13 13 13 13 13 13 13 13
15 15 14 14 14 15 15 15 15 15 15 14 14 14 14 14 14 14 14 14 14 14 14 14 14 14 14 14 13 13 13 13 13 13 13 13 13 13 13 13 13 13 13
14 14 14 14 14 14 14 14 15 14 14 14 14 14 14 14 14 14 14 14 14 14 14 14 14 14 14 13 13 13 13 13 13 13 13 13 13 13 13 13 13 13 13
14 14 14 14 14 14 14 14 14 14 14 14 14 14 14 14 14 14 14 14 13 13 13 13 13 13 13 13 13 13 13 13 13 13 13 13 12 13 13 13 13 13 13
13 14 14 14 14 14 14 14 14 14 14 14 14 14 14 13 13 14 14 13 13 13 13 13 13 13 13 13 13 12 12 12 12 12 12 12 12 12 12 12 12 12 12
13 13 13 13 13 13 13 13 13 13 13 13 13 13 13 13 13 13 13 13 13 13 13 13 13 12 13 12 12 12 12 12 12 12 12 12 12 12 12 12 12 12 12
14 13 13 13 13 13 13 13 13 13 13 13 13 13 13 13 13 13 13 13 13 13 13 13 13 12 12 12 12 12 12 12 12 12 12 12 12 11 11 11 11 11 11
13 13 13 13 13 13 13 13 13 13 13 13 13 13 13 13 13 13 13 13 13 13 13 12 12 12 12 12 12 12 12 12 12 12 12 11 11 11 11 11 11 11 11
13 13 13 13 13 13 13 13 13 13 13 12 12 12 13 13 13 13 13 13 12 12 12 12 12 12 12 11 11 11 11 11 11 11 11 11 11 11 11 11 11 11 11
13 13 13 13 13 12 12 12 12 12 12 12 12 12 12 12 12 12 12 12 12 12 12 12 11 11 11 11 11 11 11 11 11 11 11 11 11 11 10 10 10 10 10
13 13 12 12 12 12 12 12 12 12 12 12 12 12 12 12 12 12 12 12 12 12 11 11 11 11 11 11 11 11 11 11 10 10 10 10 10 10 10 10 10 10 10
13 13 12 12 12 12 12 12 12 12 12 12 12 12 11 11 11 12 12 12 12 11 11 11 11 11 10 10 10 10 10 10 10 10 10 10 10 10 10 10 10 10 9
12 12 12 12 12 12 12 12 11 11 11 11 11 11 11 11 11 11 11 11 11 11 11 11 10 10 10 10 10 10 10 10 9 9 9 9 9 9 9 9 9 9 9
12 12 12 12 12 11 11 11 11 11 11 11 11 11 11 11 11 11 11 11 11 11 10 10 10 10 10 10 9 9 9 9 9 9 9 9 9 9 9 9 9 9 9
11 11 11 11 11 11 11 11 11 11 11 11 11 11 11 11 11 11 11 11 11 10 10 10 10 10 9 9 9 9 9 9 9 9 9 8 8 9 9 9 9 8 8
11 11 11 11 11 11 11 11 11 11 11 11 11 10 11 10 10 10 10 10 10 10 10 10 10 9 9 9 9 9 8 8 8 9 8 8 8 8 8 8 8 8 8
10 11 11 11 11 11 11 10 10 10 10 10 10 10 10 10 10 10 10 10 10 10 10 10 9 9 9 9 9 9 8 8 8 8 8 8 8 8 8 8 8 8 8
10 10 10 10 10 10 10 10 10 10 10 10 10 10 10 10 10 10 10 10 10 10 10 9 9 9 9 9 8 8 9 9 8 8 8 8 8 8 8 8 8 8 8
9 9 10 10 10 10 10 10 10 10 10 10 10 10 10 10 10 10 9 9 9 9 9 9 9 9 9 9 8 8 8 8 8 8 8 8 8 8 8 8 8 8 7
8 9 9 9 9 9 9 9 9 9 9 9 9 9 9 9 9 9 9 9 9 9 9 9 9 9 8 8 8 8 8 8 8 8 8 8 8 8 8 8 8 8 7
Wind_Speed
5 9 15 15 15 14 14 14 14 14 14 14 15 15 15 15 15 14 14 14 14 14 14 15 16 16 15 15 16 17 17 17 17 16 16 16 16 16 16 15 15 15 16
9 12 16 16 15 15 15 14 14 14 14 14 14 14 14 14 14 14 14 13 13 14 15 15 15 15 15 16 16 16 16 16 17 16 16 15 15 15 15 15 15 14 16
10 13 16 17 16 15 15 14 14 13 14 13 13 13 14 14 13 13 13 13 13 14 14 15 15 14 15 15 15 15 15 16 15 15 14 13 13 14 14 14 15 15 15
11 13 15 17 16 15 14 14 14 13 13 13 13 13 13 13 13 12 12 12 13 14 14 14 14 14 14 14 14 14 14 14 14 13 12 11 11 13 13 14 14 14 14
9 12 15 17 16 15 14 14 14 13 12 12 12 12 13 13 13 13 12 12 13 13 14 14 14 14 14 14 14 14 14 13 13 12 10 10 9 12 13 14 14 14 14
8 11 14 17 16 15 15 14 14 13 12 12 12 12 12 12 12 12 12 12 13 13 13 13 14 14 13 13 13 13 13 13 12 11 9 9 9 11 13 13 13 13 13
9 10 13 16 16 15 15 14 13 13 12 11 11 12 12 12 12 12 12 13 12 12 13 13 13 13 13 12 12 12 12 12 11 10 8 8 9 11 12 12 13 13 12
8 9 12 15 15 15 14 14 13 13 12 11 11 11 11 12 12 12 12 12 12 12 12 12 13 13 12 12 12 12 11 10 10 9 8 7 8 10 11 11 11 11 11
7 7 8 11 13 14 14 14 13 12 12 11 11 10 11 12 12 12 11 11 12 12 12 12 12 12 12 12 12 12 11 10 10 8 7 7 8 10 11 10 10 11 11
6 6 6 8 10 11 12 13 13 12 12 11 11 11 11 11 12 11 11 10 11 11 11 11 11 11 12 12 11 12 11 10 9 8 7 7 9 10 10 10 10 10 11
6 4 5 6 8 9 10 11 12 12 11 11 11 12 11 10 10 10 11 10 11 11 11 10 10 11 11 11 11 11 10 8 8 7 6 8 9 9 9 10 10 10 10
8 6 5 5 7 8 8 9 9 9 9 10 10 11 10 9 9 9 10 11 11 10 10 9 10 10 10 10 10 10 9 8 7 6 6 8 8 9 9 9 9 9 9
9 7 6 6 6 7 6 7 7 8 8 9 10 10 10 9 9 9 8 8 9 9 8 8 8 9 9 9 8 8 8 7 6 6 6 7 7 8 8 7 8 8 8
8 8 7 6 6 6 6 6 7 6 6 7 9 10 10 7 6 6 6 7 7 8 8 8 8 8 8 8 8 8 7 6 6 5 6 7 6 6 6 6 6 6 6
8 8 8 7 7 7 6 5 6 6 6 8 9 9 10 7 5 6 5 6 7 8 7 7 7 7 7 7 7 7 6 6 6 6 5 6 6 6 6 5 5 4 5
8 8 7 8 7 8 6 5 5 6 7 8 8 9 10 9 7 6 5 5 6 7 7 7 7 6 5 5 5 5 5 5 5 5 5 5 5 5 5 5 4 5 5
8 7 7 8 7 8 7 6 6 7 8 7 8 9 10 10 9 7 5 5 6 7 8 7 7 6 5 4 4 4 4 5 5 5 5 5 4 4 4 4 4 4 4
6 7 7 7 7 7 7 6 6 7 7 7 8 9 10 10 10 8 6 5 7 8 7 5 4 4 3 3 3 3 3 4 4 4 5 4 4 3 3 3 3 3 3
7 7 7 6 7 7 7 6 6 6 6 6 7 8 9 10 11 9 6 6 8 7 5 5 3 3 4 4 3 3 2 2 2 3 4 4 4 3 2 2 2 2 2
6 6 7 6 7 6 5 4 4 4 4 5 6 7 9 9 10 9 6 7 8 6 4 5 4 3 3 4 4 3 2 2 2 2 2 2 2 2 1 1 2 2 2
4 5 6 7 7 6 5 5 5 5 4 4 4 6 8 9 10 8 6 7 6 5 6 6 5 5 3 3 3 2 2 2 1 1 1 1 1 0 1 1 1 1 1
5 6 6 7 7 7 6 5 4 4 3 3 3 5 7 8 9 8 7 6 6 5 6 6 5 4 2 2 3 3 1 2 2 1 1 0 1 0 0 1 1 2 1
5 6 6 7 7 7 6 4 4 3 3 3 3 3 4 7 8 7 7 7 7 7 7 7 6 6 4 2 2 3 3 3 1 2 1 0 1 1 1 1 2 2 2
4 4 5 5 6 7 7 7 7 6 5 5 4 4 4 6 7 7 7 7 7 6 6 6 6 4 6 4 2 1 2 3 3 1 2 1 1 2 2 2 3 3 3
2 3 4 4 5 6 7 8 7 5 4 3 4 5 4 4 5 6 7 6 6 5 6 6 6 5 5 5 4 3 2 2 2 2 2 2 2 2 3 3 3 4 4
0 1 3 4 5 5 6 7 7 7 6 6 5 5 4 3 3 4 5 5 5 5 6 6 7 7 6 5 4 4 4 3 3 3 3 2 2 2 2 2 3 5 5
Wind_Direction
174 171 161 152 146 142 137 131 127 124 122 120 119 118 119 119 116 113 112 111 108 106 105 105 104 101 99 99 98 94 91 88 87 84 82 81 82 82 82 79 77 75 78
157 164 159 151 148 143 138 135 130 128 126 125 124 122 121 121 119 116 114 113 111 108 106 105 103 100 98 101 99 96 93 90 88 84 81 80 80 82 83 81 80 81 80
149 159 156 151 148 145 141 137 133 133 131 129 128 127 125 124 121 118 117 115 113 111 108 105 101 100 101 102 101 98 95 93 90 85 79 78 82 84 85 84 82 83 81
149 154 154 152 149 146 144 141 139 134 132 132 131 132 130 128 125 122 119 117 113 111 109 107 106 104 104 104 104 101 97 93 89 84 77 76 83 87 88 86 84 84 83
145 151 155 153 151 149 146 143 141 137 133 133 134 134 132 131 128 124 119 116 113 112 112 109 108 107 108 107 106 103 99 94 88 82 77 77 82 89 89 88 85 84 83
144 149 155 154 152 150 147 145 142 140 136 134 135 135 132 131 129 124 118 115 112 113 114 112 110 110 110 110 109 106 101 95 89 83 79 83 87 92 90 88 85 84 84
147 149 157 157 155 152 150 147 143 140 138 135 135 135 131 128 125 124 121 118 116 115 116 115 114 111 110 109 109 107 102 98 92 84 80 83 94 97 93 89 84 82 84
148 147 157 160 157 156 154 151 147 143 139 137 136 134 132 130 126 122 124 123 120 119 119 118 117 113 109 107 107 105 102 99 95 88 85 85 94 100 97 92 88 83 82
140 141 147 158 160 160 157 154 152 146 143 140 136 130 129 131 128 126 124 126 124 121 118 117 117 114 110 107 106 103 99 98 94 87 85 89 99 99 98 96 91 86 84
139 141 142 147 149 152 155 156 153 148 146 142 135 128 125 129 129 127 124 123 124 124 121 118 117 115 110 108 107 105 100 94 90 85 83 94 101 98 96 97 95 90 87
153 148 146 144 141 144 149 153 149 146 145 139 133 128 122 121 124 123 124 124 121 122 123 120 117 115 110 108 109 107 100 95 92 86 87 95 98 97 96 96 98 95 92
172 169 156 151 147 143 146 142 140 140 139 134 131 130 124 121 123 125 127 128 125 121 120 120 116 112 105 103 103 104 100 96 88 86 91 93 94 96 96 94 98 98 96
177 173 167 159 151 143 134 135 133 134 134 134 135 135 128 121 120 120 118 119 120 118 111 110 107 106 104 103 102 100 99 94 88 87 90 93 97 98 98 97 98 101 100
174 178 170 163 156 148 140 141 139 136 134 137 142 143 134 125 122 124 119 122 121 121 115 110 108 110 105 104 106 102 96 94 87 85 88 90 95 98 101 102 103 106 104
182 182 176 167 166 156 146 148 149 148 149 148 148 150 147 140 141 137 131 128 127 127 123 118 115 111 105 102 102 102 94 93 87 86 87 89 96 100 103 107 105 113 119
190 186 179 174 169 160 160 159 159 157 154 153 155 159 157 153 152 147 141 137 134 135 133 130 126 119 110 105 97 100 102 98 91 87 87 87 90 94 99 96 96 109 117
189 184 181 179 168 168 167 165 162 162 159 161 163 164 164 162 160 155 152 151 148 143 134 124 118 112 108 103 95 93 98 94 93 88 88 86 83 83 88 88 86 104 114
181 179 181 179 174 176 171 167 165 167 165 168 167 168 169 168 166 160 157 158 155 146 136 129 127 118 114 111 103 89 84 86 89 94 92 84 83 82 83 81 80 90 106
184 179 177 174 175 179 173 165 163 164 166 167 169 170 172 170 169 163 161 156 153 145 140 141 132 132 133 123 109 91 76 76 80 88 85 82 82 78 80 76 77 74 76
182 177 175 174 173 170 163 151 149 153 157 159 170 175 173 172 170 164 156 155 153 146 147 143 138 125 130 130 110 85 62 58 73 83 81 75 87 90 86 81 85 70 57
171 173 177 177 175 166 167 168 168 177 175 173 171 170 171 170 170 166 160 155 156 159 159 150 138 129 123 128 109 79 35 41 55 67 56 58 44 93 110 122 123 113 101
181 182 182 183 179 176 178 179 169 161 167 170 160 160 169 168 168 171 164 163 160 154 150 154 145 136 137 145 131 118 70 355 351 14 28 346 330 349 129 195 187 172 188
192 191 190 189 182 178 163 147 126 114 111 142 164 174 173 174 171 169 169 165 164 165 170 171 164 153 156 168 151 145 155 202 266 323 315 276 251 262 268 254 243 231 222
215 198 188 182 177 171 161 164 166 171 176 183 177 176 169 171 171 170 170 168 169 170 173 179 173 158 155 165 154 92 130 146 155 245 306 291 261 250 250 251 251 250 237
215 194 185 170 169 167 170 172 171 173 172 152 149 157 166 164 167 166 169 168 170 175 176 177 174 168 171 171 166 150 120 88 126 165 233 271 285 258 243 242 241 243 243
53 163 173 166 169 169 174 175 173 170 160 153 155 166 169 163 165 164 166 171 175 176 181 183 181 179 183 175 170 165 162 163 178 176 201 229 250 271 261 240 234 237 241
Height
1507 1510 1513 1516 1519 1521 1523 1525 1527 1528 1529 1531 1532 1534 1535 1536 1538 1539 1540 1541 1542 1543 1544 1545 1546 1547 1548 1548 1549 1550 1550 1551 1552 1552 1553 1554 1554 1555 1555 1556 1556 1556 1557
1506 1510 1513 1516 1519 1521 1523 1525 1527 1528 1530 1531 1533 1534 1536 1537 1538 1539 1541 1542 1543 1544 1545 1546 1547 1548 1549 1550 1550 1551 1552 1553 1553 1554 1555 1555 1556 1557 1557 1558 1558 1558 1559
1506 1509 1513 1516 1518 1521 1523 1525 1527 1529 1530 1532 1533 1535 1536 1538 1539 1540 1541 1543 1544 1545 1546 1547 1548 1549 1550 1551 1551 1552 1553 1554 1555 1555 1556 1557 1558 1558 1559 1559 1560 1560 1560
1506 1509 1512 1516 1518 1520 1523 1525 1527 1529 1530 1532 1534 1535 1537 1538 1539 1541 1542 1543 1544 1545 1547 1548 1549 1550 1551 1552 1553 1554 1555 1555 1556 1557 1558 1559 1559 1560 1561 1561 1561 1561 1562
1506 1509 1512 1516 1518 1520 1523 1525 1527 1529 1530 1532 1534 1536 1537 1539 1540 1541 1543 1544 1545 1546 1547 1549 1550 1551 1552 1553 1554 1555 1556 1557 1557 1558 1559 1560 1561 1562 1562 1563 1563 1563 1563
1506 1509 1512 1515 1518 1520 1523 1525 1527 1528 1530 1532 1534 1536 1538 1539 1541 1542 1543 1545 1546 1547 1548 1549 1551 1552 1553 1554 1555 1556 1557 1558 1559 1560 1560 1561 1562 1563 1564 1564 1564 1564 1564
1506 1509 1512 1515 1517 1520 1522 1524 1526 1528 1530 1532 1534 1536 1538 1539 1541 1542 1544 1545 1546 1548 1549 1550 1552 1553 1554 1555 1556 1557 1558 1559 1560 1561 1562 1562 1563 1564 1565 1565 1565 1566 1566
1506 1509 1512 1514 1517 1519 1522 1524 1526 1528 1530 1532 1534 1536 1538 1539 1541 1543 1544 1546 1547 1548 1550 1551 1552 1554 1555 1556 1557 1558 1559 1560 1561 1562 1563 1564 1564 1565 1566 1566 1566 1567 1567
1506 1508 1511 1514 1516 1518 1521 1523 1525 1527 1530 1532 1534 1536 1538 1539 1541 1543 1544 1546 1547 1549 1550 1552 1553 1554 1555 1557 1558 1559 1560 1561 1562 1563 1564 1564 1565 1566 1566 1567 1567 1568 1568
1505 1508 1510 1512 1515 1517 1520 1522 1524 1527 1529 1531 1533 1535 1537 1539 1541 1543 1544 1546 1547 1549 1550 1552 1553 1555 1556 1557 1559 1560 1561 1562 1563 1564 1564 1565 1566 1566 1567 1567 1568 1568 1568
1504 1506 1509 1511 1513 1516 1518 1521 1523 1525 1528 1530 1532 1534 1536 1538 1540 1542 1544 1546 1547 1549 1550 1552 1554 1555 1556 1558 1559 1560 1562 1563 1564 1564 1565 1566 1566 1567 1567 1568 1568 1568 1568
1501 1504 1507 1509 1512 1514 1517 1519 1521 1524 1526 1528 1531 1533 1535 1537 1539 1541 1543 1545 1547 1548 1550 1552 1553 1555 1556 1558 1559 1561 1562 1563 1564 1565 1565 1566 1567 1567 1567 1568 1568 1568 1568
1499 1502 1505 1507 1510 1512 1515 1517 1520 1522 1525 1527 1529 1532 1534 1536 1538 1540 1542 1544 1546 1548 1549 1551 1553 1554 1556 1558 1559 1561 1562 1563 1564 1565 1565 1566 1567 1567 1567 1567 1568 1568 1568
1497 1499 1502 1505 1508 1510 1513 1516 1518 1521 1523 1525 1528 1530 1532 1534 1537 1539 1541 1543 1545 1547 1548 1550 1552 1554 1556 1557 1559 1560 1561 1563 1564 1565 1565 1566 1567 1567 1567 1567 1567 1567 1567
1494 1497 1500 1503 1506 1508 1511 1514 1516 1519 1521 1524 1526 1528 1531 1533 1535 1537 1540 1542 1543 1545 1547 1549 1551 1553 1555 1556 1558 1559 1561 1562 1563 1564 1565 1566 1566 1567 1567 1567 1567 1567 1567
1492 1495 1498 1500 1503 1506 1509 1511 1514 1516 1519 1522 1524 1526 1529 1531 1534 1536 1538 1540 1542 1544 1546 1548 1550 1552 1554 1556 1557 1559 1560 1561 1562 1563 1564 1565 1565 1566 1566 1566 1566 1566 1566
1489 1492 1495 1498 1501 1504 1507 1509 1512 1514 1517 1519 1522 1524 1527 1529 1532 1534 1536 1538 1541 1543 1545 1547 1549 1551 1553 1554 1556 1558 1559 1560 1561 1562 1563 1564 1564 1565 1565 1566 1566 1566 1566
1486 1489 1492 1495 1497 1500 1503 1506 1509 1512 1514 1517 1519 1522 1524 1527 1530 1532 1534 1537 1539 1541 1543 1545 1547 1549 1551 1553 1555 1556 1558 1559 1560 1561 1562 1563 1563 1564 1564 1564 1565 1565 1565
1483 1486 1489 1492 1494 1497 1500 1503 1506 1509 1511 1514 1517 1519 1522 1525 1527 1530 1532 1534 1537 1539 1541 1543 1545 1548 1550 1551 1553 1555 1556 1557 1559 1560 1560 1561 1562 1562 1563 1563 1563 1564 1564
1479 1482 1485 1488 1491 1494 1497 1499 1503 1505 1508 1511 1514 1517 1519 1522 1525 1527 1529 1532 1534 1537 1539 1541 1543 1546 1548 1549 1551 1553 1554 1556 1557 1558 1559 1560 1560 1561 1561 1561 1562 1562 1562
1476 1478 1481 1484 1487 1490 1493 1495 1498 1501 1504 1508 1511 1513 1516 1519 1522 1524 1527 1529 1532 1534 1536 1539 1541 1543 1545 1547 1549 1551 1552 1553 1554 1556 1557 1557 1558 1558 1559 1560 1560 1560 1561
1471 1474 1477 1480 1483 1486 1489 1492 1496 1499 1501 1505 1508 1511 1513 1516 1519 1521 1524 1526 1529 1531 1534 1536 1538 1540 1542 1545 1547 1548 1550 1552 1551 1553 1554 1555 1555 1556 1557 1557 1558 1558 1559
1468 1470 1473 1476 1479 1482 1486 1489 1492 1495 1498 1501 1504 1507 1510 1513 1516 1518 1521 1524 1526 1529 1531 1533 1535 1537 1539 1542 1544 1546 1547 1548 1549 1550 1551 1552 1553 1554 1554 1555 1556 1556 1556
1464 1467 1470 1472 1475 1478 1482 1485 1488 1490 1493 1496 1500 1503 1506 1509 1512 1515 1518 1520 1523 1525 1528 1530 1533 1535 1537 1539 1541 1543 1545 1545 1547 1547 1549 1550 1550 1551 1552 1552 1553 1553 1554
1461 1464 1466 1469 1472 1475 1478 1481 1484 1487 1490 1494 1497 1500 1503 1506 1509 1511 1515 1517 1520 1522 1525 1527 1530 1532 1534 1536 1537 1539 1541 1542 1544 1545 1545 1546 1547 1548 1549 1550 1550 1551 1551
1458 1460 1463 1465 1468 1471 1474 1477 1480 1483 1487 1490 1493 1496 1499 1502 1505 1508 1511 1514 1516 1519 1521 1524 1526 1528 1530 1532 1534 1536 1538 1539 1540 1542 1542 1543 1544 1545 1546 1546 1547 1548 1548